1529467200.55,27368,18.75,74736.5,6.61,2.77,-0.97,0,*65
1529467201.78,27369,18.75,74732.5,6.61,2.51,-1.29,0,*54
1529467203.02,27370,18.75,74732.5,6.61,2.31,-1.35,0,*57
1529467204.28,27371,18.75,74732.5,6.61,1.93,-1.87,0,*54
1529467205.5,27372,18.75,74736.3,6.59,2.01,-1.79,0,*55
1529467206.76,27373,18.75,74738.0,6.61,2.01,-1.87,0,*5E
1529467208.0,27374,18.75,74736.5,6.61,1.55,-2.27,0,*52
1529467209.22,27375,18.75,74732.8,6.59,1.55,-2.23,0,*5C
1529467210.46,27376,18.75,74730.3,6.59,1.55,-2.11,0,*5E
1529467211.7,27377,18.75,74728.0,6.59,1.43,-1.99,0,*5B
1529467212.94,27378,18.81,74734.0,6.61,1.59,-1.79,0,*5A
1529467214.15,27379,18.75,74732.8,6.59,1.67,-1.75,0,*51
1529467215.42,27380,18.75,74734.0,6.57,1.29,-2.03,0,*51
1529467216.63,27381,18.75,74732.5,6.59,1.47,-1.79,0,*58
1529467217.84,27382,18.75,74732.3,6.59,1.43,-1.75,0,*53
1529467219.08,27383,18.75,74732.8,6.59,1.47,-1.47,0,*57
1529467220.33,27384,18.75,74734.8,6.61,1.55,-1.71,0,*5D
1529467221.6,27385,18.75,74738.0,6.61,1.33,-1.87,0,*55
1529467222.86,27386,18.75,74736.8,6.61,1.59,-1.47,0,*56
1529467224.1,27387,18.75,74736.3,6.59,1.29,-1.91,0,*50
1529467225.35,27388,18.75,74736.8,6.61,1.29,-1.79,0,*52
1529467226.57,27389,18.75,74736.5,6.59,1.17,-1.79,0,*55
1529467227.78,27390,18.75,74740.8,6.59,1.43,-1.29,0,*59
1529467229.02,27391,18.75,74736.8,6.61,1.43,-1.29,0,*53
1529467230.25,27392,18.75,74740.8,6.61,0.87,-1.63,0,*67
1529467231.47,27393,18.75,74738.5,6.61,0.63,-1.59,0,*65
1529467232.71,27394,18.75,74736.8,6.59,0.83,-1.35,0,*6D
1529467233.91,27395,18.75,74738.5,6.59,0.43,-1.87,0,*69
1529467235.12,27396,18.75,74736.5,6.59,0.55,-1.51,0,*66
1529467236.32,27397,18.75,74736.8,6.59,0.63,-1.25,0,*61
1529467237.52,27398,18.75,74736.5,6.59,0.59,-1.17,0,*66
1529467238.76,27399,18.75,74738.5,6.59,0.55,-1.39,0,*67
1529467239.99,27400,18.75,74736.3,6.59,0.21,-1.47,0,*6A
1529467241.17,27401,18.75,74738.3,6.59,0.09,-1.29,0,*59
1529467242.39,27402,18.75,74742.0,6.59,0.21,-1.13,0,*69
1529467243.63,27403,18.75,74736.0,6.59,-0.27,-1.35,0,*47
1529467244.84,27404,18.75,74736.3,6.61,-0.15,-1.25,0,*4B
1529467246.03,27405,18.75,74738.8,6.59,-0.15,-1.17,0,*40
1529467247.23,27406,18.75,74732.8,6.61,-0.15,-1.29,0,*45
1529467248.46,27407,18.75,74734.0,6.61,0.21,-1.29,0,*6E
1529467249.67,27408,18.75,74732.0,6.59,-0.03,-1.35,0,*7A
1529467250.86,27409,18.75,74736.0,6.59,-0.37,-1.59,0,*46
1529467252.03,27410,18.75,74732.0,6.63,0.01,-1.21,0,*50
1529467253.24,27411,18.75,74738.5,6.59,0.47,-1.17,0,*6F
1529467254.41,27412,18.75,74736.0,6.59,0.43,-1.17,0,*68
1529467255.62,27413,18.81,74740.5,6.59,0.25,-1.17,0,*69
1529467256.86,27414,18.75,74738.0,6.59,-0.23,-1.47,0,*40
1529467258.1,27415,18.81,74736.0,6.59,-0.27,-1.39,0,*4C
1529467259.28,27416,18.75,74738.5,6.59,-0.37,-1.59,0,*48
1529467260.47,27417,18.75,74738.5,6.59,-0.29,-1.51,0,*4E
1529467261.65,27418,18.75,74740.3,6.59,-0.61,-1.59,0,*45
1529467262.86,27419,18.75,74734.8,6.59,-0.85,-1.59,0,*4E
1529467264.12,27420,18.75,74738.3,6.57,-0.89,-1.39,0,*40
1529467265.36,27421,18.81,74736.0,6.57,-0.89,-1.17,0,*4D
1529467266.57,27422,18.75,74734.8,6.57,-0.53,-0.69,0,*71
1529467267.78,27423,18.75,74734.0,6.57,-0.19,-0.53,0,*77
1529467269.03,27424,18.75,74736.5,6.53,0.55,-0.23,0,*56
1529467270.26,27425,18.75,74732.0,6.57,1.51,-0.53,0,*61
1529467271.51,27426,18.75,74734.3,6.53,2.05,-1.09,0,*5A
1529467272.78,27427,18.75,74732.3,6.57,1.85,-1.39,0,*57
1529467274.02,27428,18.75,74734.8,6.59,1.67,-1.91,0,*58
1529467275.26,27429,18.75,74730.5,6.57,1.13,-2.83,0,*54
1529467276.5,27430,18.75,74734.0,6.57,0.91,-2.83,0,*67
1529467277.72,27431,18.75,74720.5,6.53,0.37,-3.11,0,*64
1529467278.95,27432,18.75,74722.8,6.57,0.33,-2.95,0,*6A
1529467280.17,27433,18.75,74720.5,6.53,0.41,-2.95,0,*6A
1529467281.39,27434,18.75,74722.5,6.53,0.37,-2.87,0,*6F
1529467282.59,27435,18.81,74726.8,6.53,0.05,-3.11,0,*51
1529467283.8,27436,18.75,74720.5,6.51,-0.33,-3.35,0,*4E
1529467285.05,27437,18.75,74728.3,6.51,-0.93,-3.47,0,*40
1529467286.31,27438,18.75,74726.3,6.51,-1.13,-3.47,0,*76
1529467287.5,27439,18.75,74730.0,6.49,-1.17,-3.15,0,*7D
1529467288.74,27440,18.75,74726.5,6.51,-1.13,-3.11,0,*7A
1529467289.94,27441,18.75,74728.5,6.49,-1.17,-3.03,0,*75
1529467291.16,27442,18.75,74728.5,6.49,-1.05,-3.11,0,*76
1529467292.35,27443,18.75,74734.0,6.49,-1.17,-3.11,0,*74
1529467293.57,27444,18.75,74728.8,6.51,-1.33,-3.11,0,*7C
1529467294.78,27445,18.75,74728.0,6.51,-1.63,-3.35,0,*7E
1529467295.96,27446,18.75,74728.5,6.49,-1.51,-3.39,0,*79
1529467297.15,27447,18.75,74728.0,6.49,-1.51,-3.27,0,*77
1529467298.33,27448,18.75,74732.8,6.49,-1.59,-3.23,0,*74
1529467299.56,27449,18.81,74736.5,6.49,-1.87,-3.51,0,*73
1529467300.8,27450,18.75,74726.8,6.49,-1.99,-3.55,0,*70
1529467302.03,27451,18.75,74732.0,6.49,-2.03,-3.55,0,*71
1529467303.27,27452,18.75,74730.8,6.49,-1.99,-3.63,0,*77
1529467304.5,27453,18.75,74728.3,6.49,-1.99,-3.63,0,*76
1529467305.74,27454,18.75,74730.8,6.49,-2.11,-3.63,0,*72
1529467307.0,27455,18.75,74728.8,6.47,-2.07,-3.59,0,*73
1529467308.21,27456,18.75,74732.5,6.47,-2.15,-3.79,0,*71
1529467309.48,27457,18.75,74732.5,6.47,-2.03,-3.59,0,*75
1529467310.68,27458,18.75,74730.5,6.45,-2.15,-3.71,0,*75
1529467311.91,27459,18.75,74730.5,6.47,-2.15,-3.67,0,*71
1529467313.16,27460,18.75,74732.0,6.47,-1.91,-3.51,0,*71
1529467314.39,27461,18.75,74734.8,6.47,-1.75,-3.43,0,*79
1529467315.65,27462,18.75,74728.8,6.47,-1.87,-3.51,0,*74
1529467316.88,27463,18.75,74734.0,6.45,-1.87,-3.43,0,*74
1529467318.09,27464,18.75,74728.3,6.47,-1.63,-3.19,0,*74
1529467319.28,27465,18.75,74734.5,6.45,-1.29,-2.83,0,*7B
1529467320.49,27466,18.75,74736.3,6.47,-1.29,-2.91,0,*79
1529467321.72,27467,18.75,74738.0,6.47,-0.93,-2.91,0,*48
1529467322.96,27468,18.75,74734.5,6.47,-1.39,-3.31,0,*7D
1529467324.18,27469,18.75,74732.8,6.45,-1.39,-3.27,0,*79
1529467325.4,27470,18.75,74734.3,6.47,-1.29,-2.95,0,*7A
1529467326.61,27471,18.75,74734.3,6.47,-1.29,-2.83,0,*7C
1529467327.88,27472,18.75,74738.8,6.47,-1.01,-2.67,0,*7F
1529467329.14,27473,18.75,74738.0,6.51,-0.85,-2.47,0,*46
1529467330.36,27474,18.75,74736.3,6.49,-0.73,-2.59,0,*4E
1529467331.55,27475,18.75,74736.0,6.49,-1.17,-2.79,0,*7E
1529467332.8,27476,18.75,74738.3,6.53,-1.21,-2.75,0,*7F
1529467334.02,27477,18.75,74738.3,6.49,-1.39,-2.99,0,*7E
1529467335.23,27478,18.75,74736.8,6.49,-1.91,-3.03,0,*71
1529467336.48,27479,18.75,74736.0,6.49,-1.87,-2.63,0,*70
1529467337.72,27480,18.75,74738.3,6.49,-1.01,-1.83,0,*75
1529467338.94,27481,18.75,74742.5,6.51,-0.61,-0.93,0,*7A
1529467340.14,27482,18.75,74738.0,6.49,-0.23,-0.65,0,*7F
1529467341.33,27483,18.75,74742.0,6.51,0.05,-0.61,0,*6A
1529467342.57,27484,18.75,74738.8,6.51,0.13,-0.93,0,*57
1529467343.8,27485,18.75,74736.5,6.49,0.21,-1.09,0,*6C
1529467345.04,27486,18.75,74738.3,6.51,0.29,-0.93,0,*5C
1529467346.24,27487,18.75,74734.0,6.49,0.87,-0.65,0,*59
1529467347.45,27488,18.75,74734.8,6.51,0.97,-0.69,0,*52
1529467348.64,27489,18.75,74736.0,6.49,0.87,-0.65,0,*57
1529467349.84,27490,18.81,74740.8,6.49,0.95,-0.53,0,*59
1529467351.07,27491,18.75,74738.0,6.51,1.47,-0.53,0,*6F
1529467352.27,27492,18.75,74738.0,6.49,1.93,-0.61,0,*6D
1529467353.52,27493,18.75,74736.5,6.51,2.21,-0.93,0,*62
1529467354.78,27494,18.75,74740.0,6.51,2.25,-1.05,0,*5F
1529467356.02,27495,18.75,74740.5,6.49,2.17,-1.09,0,*5A
1529467357.25,27496,18.75,74738.8,6.49,2.09,-0.89,0,*6F
1529467358.48,27497,18.75,74736.5,6.49,2.39,-1.13,0,*5F
1529467359.66,27498,18.75,74732.8,6.49,2.31,-1.59,0,*56
1529467360.89,27499,18.75,74736.3,6.49,2.05,-2.11,0,*5F
1529467362.13,27500,18.75,74740.0,6.51,1.41,-2.55,0,*54
1529467363.38,27501,18.75,74738.0,6.51,0.67,-2.75,0,*62
1529467364.61,27502,18.81,74740.0,6.49,0.13,-2.71,0,*6F
1529467365.81,27503,18.75,74734.8,6.49,0.01,-2.71,0,*5D
1529467367.01,27504,18.75,74736.0,6.49,-0.23,-2.87,0,*4E
1529467368.22,27505,18.75,74736.3,6.51,-0.57,-3.11,0,*4B
1529467369.43,27506,18.75,74740.0,6.49,-0.65,-3.63,0,*45
1529467370.61,27507,18.75,74742.3,6.49,-0.37,-3.79,0,*48
1529467371.81,27508,18.75,74738.5,6.49,-0.33,-3.55,0,*4D
1529467372.99,27509,18.75,74740.3,6.49,-0.15,-2.91,0,*41
1529467374.19,27510,18.75,74740.0,6.49,-0.65,-3.47,0,*44
1529467375.4,27511,18.75,74736.3,6.49,-0.97,-3.35,0,*4D
1529467376.61,27512,18.75,74738.3,6.49,-0.97,-2.91,0,*41
1529467377.87,27513,18.75,74738.5,6.51,-0.85,-2.11,0,*42
1529467379.06,27514,18.75,74742.0,6.49,-0.53,-1.75,0,*46
1529467380.26,27515,18.75,74738.0,6.47,-0.07,-1.33,0,*7A
1529467381.48,27516,18.75,74736.8,6.47,0.43,-1.01,0,*65
1529467382.71,27517,18.75,74738.3,6.47,1.21,-0.45,0,*60
1529467383.95,27518,18.75,74738.5,6.47,1.89,-0.41,0,*69
1529467385.2,27519,18.75,74740.0,6.47,2.47,-0.27,0,*69
1529467386.43,27520,18.75,74738.0,6.47,2.59,-0.29,0,*62
1529467387.65,27521,18.75,74742.5,6.51,2.77,-0.29,0,*68
1529467388.86,27522,18.75,74738.8,6.49,2.81,-0.73,0,*64
1529467390.09,27523,18.75,74740.8,6.49,2.77,-1.13,0,*5B
1529467391.3,27524,18.75,74740.5,6.49,2.65,-2.11,0,*5E
1529467392.52,27525,18.75,74736.0,6.49,2.43,-3.27,0,*5F
1529467393.7,27526,18.75,74736.5,6.49,2.31,-3.79,0,*52
1529467394.91,27527,18.75,74736.0,6.49,1.89,-4.13,0,*58
1529467396.12,27528,18.75,74738.3,6.49,1.47,-4.25,0,*50
1529467397.34,27529,18.75,74736.0,6.49,1.33,-3.79,0,*5C
1529467398.57,27530,18.75,74736.5,6.49,1.21,-3.47,0,*5A
1529467399.77,27531,18.75,74734.3,6.49,0.95,-3.35,0,*60
1529467400.97,27532,18.75,74734.8,6.49,0.95,-3.23,0,*64
1529467402.19,27533,18.75,74734.0,6.51,1.01,-2.99,0,*50
1529467403.43,27534,18.75,74734.0,6.49,1.37,-2.59,0,*57
1529467404.64,27535,18.75,74736.3,6.51,1.75,-2.43,0,*52
1529467405.84,27536,18.75,74732.5,6.49,2.09,-2.27,0,*52
1529467407.03,27537,18.75,74736.8,6.49,1.79,-2.39,0,*58
1529467408.24,27538,18.75,74732.0,6.47,1.41,-2.83,0,*53
1529467409.47,27539,18.75,74734.3,6.47,1.55,-3.07,0,*5A
1529467410.7,27540,18.75,74736.0,6.49,1.59,-3.55,0,*51
1529467411.93,27541,18.75,74732.0,6.49,1.33,-3.55,0,*5C
1529467413.15,27542,18.81,74738.8,6.49,1.09,-3.27,0,*53
1529467414.33,27543,18.75,74738.5,6.49,1.05,-2.91,0,*52
1529467415.57,27544,18.75,74736.0,6.51,1.21,-2.83,0,*59
1529467416.78,27545,18.75,74734.5,6.49,1.43,-2.39,0,*54
1529467417.99,27546,18.75,74736.8,6.49,1.71,-2.39,0,*56
1529467419.2,27547,18.75,74736.3,6.49,1.89,-2.35,0,*5C
1529467420.38,27548,18.75,74734.8,6.49,1.83,-2.35,0,*59
1529467421.6,27549,18.75,74736.8,6.51,1.83,-1.79,0,*5A
1529467422.83,27550,18.75,74742.3,6.51,1.83,-1.43,0,*5B
1529467424.06,27551,18.75,74738.5,6.49,2.05,-1.13,0,*5B
1529467425.31,27552,18.75,74738.8,6.51,2.21,-0.97,0,*6A
1529467426.54,27553,18.75,74736.0,6.49,1.93,-1.13,0,*55
1529467427.73,27554,18.75,74738.5,6.49,2.31,-0.41,0,*6F
1529467428.96,27555,18.75,74738.8,6.51,2.35,-0.23,0,*67
1529467430.18,27556,18.75,74736.5,6.51,2.55,0.05,0,*7B
1529467431.43,27557,18.75,74738.5,6.51,2.85,0.47,0,*41
1529467432.69,27558,18.75,74740.3,6.51,3.07,0.75,0,*44
1529467433.89,27559,18.75,74736.8,6.51,3.25,0.97,0,*49
1529467435.11,27560,18.75,74742.0,6.53,3.49,1.01,0,*75
1529467436.33,27561,18.75,74740.0,6.53,3.63,0.75,0,*4E
1529467437.58,27562,18.75,74738.3,6.53,3.75,0.17,0,*4E
1529467438.8,27563,18.75,74740.5,6.53,3.89,0.25,0,*4D
1529467440.02,27564,18.75,74736.8,6.53,3.79,0.01,0,*73
1529467441.26,27565,18.75,74736.0,6.53,3.67,-0.19,0,*69
1529467442.46,27566,18.75,74736.3,6.53,3.63,-0.19,0,*6E
1529467443.71,27567,18.75,74736.0,6.53,3.79,0.13,0,*43
1529467444.94,27568,18.75,74732.5,6.57,3.89,0.21,0,*46
1529467446.17,27569,18.75,74736.5,6.53,4.07,0.13,0,*43
1529467447.37,27570,18.75,74730.3,6.53,4.07,-0.57,0,*66
1529467448.61,27571,18.75,74738.5,6.53,4.01,-1.21,0,*51
1529467449.87,27572,18.75,74732.8,6.53,3.79,-1.83,0,*52
1529467451.14,27573,18.75,74732.5,6.51,3.75,-2.47,0,*56
1529467452.37,27574,18.75,74730.5,6.51,3.37,-3.31,0,*57
1529467453.6,27575,18.75,74734.3,6.51,3.25,-3.51,0,*53
1529467454.83,27576,18.75,74736.0,6.51,3.29,-3.43,0,*5F
1529467456.07,27577,18.75,74738.3,6.51,3.15,-4.09,0,*58
1529467457.29,27578,18.75,74738.5,6.49,2.91,-5.07,0,*5C
1529467458.53,27579,18.75,74738.8,6.49,2.73,-5.23,0,*57
1529467459.74,27580,18.81,74736.5,6.49,2.55,-5.35,0,*52
1529467460.95,27581,18.75,74740.3,6.49,2.43,-5.43,0,*55
1529467462.2,27582,18.75,74738.8,6.51,2.21,-5.69,0,*53
1529467463.44,27583,18.75,74738.5,6.49,1.89,-6.27,0,*53
1529467464.7,27584,18.81,74740.8,6.51,1.51,-5.93,0,*54
1529467465.9,27585,18.75,74738.0,6.49,0.83,-6.51,0,*6F
1529467467.13,27586,18.75,74738.5,6.49,0.25,-6.27,0,*61
1529467468.38,27587,18.75,74738.5,6.51,0.55,-5.77,0,*68
1529467469.61,27588,18.75,74738.5,6.49,0.63,-5.93,0,*61
1529467470.81,27589,18.75,74736.3,6.49,0.51,-6.35,0,*6E
1529467472.01,27590,18.75,74736.0,6.49,0.21,-5.97,0,*6A
1529467473.27,27591,18.75,74734.5,6.51,0.55,-4.85,0,*63
1529467474.48,27592,18.75,74738.5,6.49,1.05,-4.77,0,*50
1529467475.72,27593,18.75,74738.0,6.49,1.55,-4.93,0,*5E
1529467476.99,27594,18.75,74742.8,6.47,1.55,-5.19,0,*54
1529467478.25,27595,18.81,74742.3,6.47,1.51,-5.11,0,*59
1529467479.52,27596,18.75,74736.3,6.47,1.33,-5.61,0,*59
1529467480.75,27597,18.75,74738.3,6.47,0.83,-6.81,0,*6F
1529467481.96,27598,18.75,74736.0,6.49,0.95,-7.19,0,*69
1529467483.18,27599,18.75,74736.8,6.49,0.75,-7.73,0,*6A
1529467484.39,27600,18.81,74736.0,6.49,0.51,-7.87,0,*64
1529467485.61,27601,18.81,74738.5,6.47,0.43,-7.73,0,*63
1529467486.83,27602,18.75,74736.5,6.45,0.67,-7.61,0,*67
1529467488.08,27603,18.75,74736.0,6.47,0.59,-7.35,0,*68
1529467489.3,27604,18.75,74736.0,6.47,0.67,-7.49,0,*69
1529467490.55,27605,18.75,74734.8,6.47,0.29,-7.77,0,*6F
1529467491.77,27606,18.75,74734.0,6.45,0.29,-7.91,0,*66
1529467492.96,27607,18.75,74734.3,6.45,0.21,-8.17,0,*6E
1529467494.15,27608,18.81,74738.5,6.45,0.17,-8.17,0,*64
1529467495.32,27609,18.75,74736.8,6.45,0.09,-8.25,0,*5B
1529467496.5,27610,18.75,74738.5,6.45,-0.15,-8.63,0,*41
1529467497.69,27611,18.75,74736.5,6.45,-0.29,-8.81,0,*43
1529467498.9,27612,18.75,74738.3,6.47,-0.37,-8.93,0,*4E
1529467500.13,27613,18.75,74732.0,6.43,-0.57,-9.15,0,*42
1529467501.35,27614,18.75,74738.3,6.43,-0.69,-9.79,0,*42
1529467502.57,27615,18.75,74736.3,6.41,-1.05,-10.09,0,*45
1529467503.85,27616,18.75,74738.3,6.43,-1.35,-10.41,0,*4B
1529467505.12,27617,18.75,74738.5,6.43,-2.07,-11.29,0,*47
1529467506.32,27618,18.81,74740.8,6.41,-2.87,-11.45,0,*48
1529467507.54,27619,18.75,74742.0,6.41,-3.07,-10.63,0,*45
1529467508.76,27620,18.75,74742.8,6.41,-3.55,-9.93,0,*7F
1529467509.94,27621,18.75,74740.3,6.41,-2.99,-8.75,0,*76
1529467511.18,27622,18.75,74740.8,6.41,-1.95,-7.61,0,*70
1529467512.39,27623,18.81,74740.3,6.41,-1.09,-6.01,0,*73
1529467513.63,27624,18.81,74740.8,6.39,-0.27,-4.41,0,*40
1529467514.83,27625,18.75,74736.5,6.37,0.29,-3.27,0,*6B
1529467516.07,27626,18.75,74740.0,6.37,0.91,-2.51,0,*6B
1529467517.31,27627,18.75,74734.3,6.39,1.25,-2.15,0,*5A
1529467518.54,27628,18.75,74732.3,6.39,1.79,-1.87,0,*54
1529467519.75,27629,18.75,74736.0,6.39,2.27,-1.59,0,*5E
1529467521.02,27630,18.75,74736.0,6.39,2.55,-1.47,0,*5C
1529467522.26,27631,18.75,74736.8,6.39,2.91,-1.39,0,*5C
1529467523.49,27632,18.75,74742.0,6.39,2.89,-2.35,0,*59
1529467524.72,27633,18.75,74742.3,6.39,2.89,-2.91,0,*56
1529467525.95,27634,18.75,74740.3,6.41,2.55,-4.01,0,*50
1529467527.16,27635,18.81,74746.3,6.41,2.13,-4.65,0,*51
1529467528.38,27636,18.75,74738.0,6.41,1.83,-5.27,0,*5F
1529467529.63,27637,18.75,74740.3,6.41,1.29,-6.19,0,*50
1529467530.84,27638,18.75,74740.8,6.41,0.91,-6.47,0,*66
1529467532.05,27639,18.81,74744.8,6.41,0.91,-6.73,0,*60
1529467533.29,27640,18.75,74742.8,6.39,0.87,-7.11,0,*63
1529467534.51,27641,18.75,74742.0,6.37,0.17,-7.57,0,*67
1529467535.69,27642,18.75,74738.0,6.37,-0.07,-6.81,0,*72
1529467536.9,27643,18.75,74738.5,6.37,-0.15,-5.31,0,*48
1529467538.13,27644,18.75,74738.5,6.39,0.25,-3.91,0,*63
1529467539.38,27645,18.75,74740.3,6.39,0.71,-3.51,0,*6F
1529467540.58,27646,18.75,74740.0,6.37,0.83,-3.95,0,*67
1529467541.82,27647,18.75,74740.5,6.37,1.09,-4.81,0,*57
1529467543.0,27648,18.75,74744.0,6.37,1.01,-6.81,0,*52
1529467544.27,27649,18.75,74740.0,6.35,0.55,-9.37,0,*63
1529467545.48,27650,18.81,74744.3,6.35,-0.65,-9.75,0,*43
1529467546.69,27651,18.75,74740.3,6.35,-1.29,-8.63,0,*7D
1529467547.93,27652,18.75,74734.5,6.35,-1.29,-8.81,0,*72
1529467549.18,27653,18.75,74732.8,6.35,-1.05,-8.93,0,*7E
1529467550.41,27654,18.75,74732.3,6.31,-0.93,-8.17,0,*4F
1529467551.65,27655,18.75,74736.3,6.31,-0.41,-7.27,0,*4D
1529467552.85,27656,18.75,74738.5,6.31,0.01,-6.81,0,*5A
1529467554.06,27657,18.75,74738.8,6.35,-0.03,-6.55,0,*79
1529467555.29,27658,18.75,74736.3,6.31,0.25,-6.43,0,*6C
1529467556.52,27659,18.81,74738.5,6.31,0.41,-6.73,0,*6C
1529467557.78,27660,18.75,74740.8,6.35,0.47,-7.43,0,*66
1529467559.02,27661,18.75,74742.3,6.31,0.13,-8.03,0,*69
1529467560.26,27662,18.75,74742.3,6.31,-0.19,-8.03,0,*4D
1529467561.47,27663,18.75,74742.0,6.31,-0.33,-8.45,0,*46
1529467562.69,27664,18.75,74742.0,6.31,-0.93,-8.33,0,*4A
1529467563.96,27665,18.75,74742.0,6.31,-1.35,-7.77,0,*79
1529467565.19,27666,18.75,74740.0,6.31,-1.71,-6.81,0,*72
1529467566.46,27667,18.75,74738.8,6.31,-1.05,-5.69,0,*75
1529467567.69,27668,18.75,74738.0,6.31,-0.33,-4.73,0,*44
1529467568.94,27669,18.75,74738.5,6.31,0.17,-3.59,0,*61
1529467570.17,27670,18.75,74738.8,6.35,0.71,-2.31,0,*62
1529467571.45,27671,18.75,74742.0,6.31,1.29,-1.47,0,*59
1529467572.72,27672,18.75,74740.3,6.31,1.29,-1.05,0,*5C
1529467573.95,27673,18.81,74742.3,6.35,1.51,-0.07,0,*55
1529467575.2,27674,18.75,74740.5,6.31,2.01,0.75,0,*48
1529467576.45,27675,18.75,74738.3,6.31,2.55,1.25,0,*7C
1529467577.7,27676,18.81,74744.5,6.35,2.89,1.47,0,*7E
1529467578.95,27677,18.75,74740.5,6.35,3.11,1.63,0,*79
1529467580.18,27678,18.75,74742.8,6.35,2.95,1.67,0,*7F
1529467581.41,27679,18.75,74742.5,6.37,3.11,2.17,0,*75
1529467582.59,27680,18.75,74740.5,6.37,3.29,2.65,0,*7D
1529467583.79,27681,18.75,74736.3,6.37,3.37,2.99,0,*70
1529467584.96,27682,18.75,74740.5,6.37,3.55,3.29,0,*7D
1529467586.19,27683,18.81,74742.5,6.37,3.71,3.71,0,*77
1529467587.42,27684,18.75,74742.5,6.39,4.05,4.23,0,*7A
1529467588.66,27685,18.75,74738.5,6.39,4.31,4.33,0,*7D
1529467589.84,27686,18.75,74738.0,6.41,4.45,4.57,0,*70
1529467591.02,27687,18.75,74740.3,6.41,4.89,4.81,0,*7A
1529467592.28,27688,18.75,74740.3,6.43,5.05,4.97,0,*75
1529467593.45,27689,18.75,74740.5,6.45,5.29,5.07,0,*74
1529467594.65,27690,18.75,74742.8,6.45,5.51,5.19,0,*7C
1529467595.84,27691,18.75,74742.3,6.45,5.63,5.19,0,*7C
1529467597.07,27692,18.81,74742.8,6.47,5.73,5.11,0,*74
1529467598.27,27693,18.75,74736.0,6.49,5.77,5.15,0,*7B
1529467599.48,27694,18.75,74738.8,6.49,5.81,5.11,0,*71
1529467600.72,27695,18.75,74742.3,6.49,5.81,5.01,0,*71
1529467601.92,27696,18.75,74740.5,6.49,5.85,4.85,0,*7B
1529467603.18,27697,18.75,74742.3,6.51,5.81,4.67,0,*7B
1529467604.38,27698,18.75,74740.5,6.51,5.63,4.45,0,*78
1529467605.58,27699,18.75,74740.0,6.51,5.29,4.07,0,*71
1529467606.8,27700,18.81,74746.0,6.53,5.15,4.01,0,*7B
1529467608.0,27701,18.75,74740.3,6.53,5.15,4.19,0,*73
1529467609.2,27702,18.75,74738.5,6.53,5.29,4.37,0,*73
1529467610.4,27703,18.81,74742.3,6.53,5.49,4.45,0,*71
1529467611.6,27704,18.75,74740.3,6.53,5.41,4.37,0,*7B
1529467612.81,27705,18.75,74740.5,6.53,5.41,4.33,0,*7E
1529467614.03,27706,18.75,74738.5,6.53,5.49,4.31,0,*77
1529467615.25,27707,18.75,74738.8,6.53,5.51,4.23,0,*7C
1529467616.5,27708,18.75,74742.5,6.57,5.55,4.01,0,*73
1529467617.75,27709,18.75,74742.3,6.57,5.51,3.67,0,*71
1529467618.97,27710,18.75,74746.3,6.53,5.41,3.07,0,*7A
1529467620.2,27711,18.75,74742.8,6.53,5.41,2.55,0,*7D
1529467621.42,27712,18.75,74742.5,6.57,5.11,1.63,0,*79
1529467622.67,27713,18.75,74742.0,6.57,5.05,0.95,0,*45
1529467623.9,27714,18.75,74738.3,6.57,4.85,0.21,0,*44
1529467625.1,27715,18.75,74740.0,6.57,4.49,-0.33,0,*6B
1529467626.35,27716,18.75,74738.5,6.53,4.01,-0.97,0,*6E
1529467627.58,27717,18.75,74738.3,6.53,3.79,-0.57,0,*6B
1529467628.81,27718,18.75,74738.3,6.53,3.79,-0.49,0,*6B
1529467630.04,27719,18.75,74738.8,6.53,3.79,-0.61,0,*60
1529467631.27,27720,18.75,74736.5,6.53,3.53,-1.33,0,*54
1529467632.48,27721,18.81,74736.8,6.53,3.29,-2.31,0,*59
1529467633.72,27722,18.75,74738.5,6.51,3.15,-3.11,0,*54
1529467634.96,27723,18.75,74736.8,6.51,2.55,-4.49,0,*5A
1529467636.19,27724,18.75,74740.5,6.49,2.09,-5.93,0,*5B
1529467637.39,27725,18.75,74742.0,6.49,1.51,-8.75,0,*51
1529467638.63,27726,18.75,74740.8,6.51,0.97,-9.11,0,*63
1529467639.84,27727,18.75,74736.5,6.49,1.09,-8.21,0,*5F
1529467641.08,27728,18.81,74742.5,6.49,1.47,-7.27,0,*53
1529467642.29,27729,18.75,74742.8,6.49,1.55,-6.85,0,*58
1529467643.56,27730,18.75,74738.0,6.47,1.17,-7.35,0,*52
1529467644.77,27731,18.75,74740.8,6.49,1.05,-7.01,0,*59
1529467645.95,27732,18.75,74738.5,6.45,1.41,-7.23,0,*56
1529467647.2,27733,18.75,74742.3,6.47,1.21,-8.85,0,*50
1529467648.42,27734,18.75,74740.5,6.45,0.95,-9.45,0,*66
1529467649.63,27735,18.75,74744.0,6.45,0.79,-10.05,0,*59
1529467650.81,27736,18.75,74742.0,6.45,0.43,-10.57,0,*54
1529467652.01,27737,18.75,74740.3,6.43,-0.33,-8.85,0,*4F
1529467653.22,27738,18.75,74736.3,6.41,-0.33,-6.23,0,*40
1529467654.43,27739,18.75,74736.8,6.43,-0.07,-4.21,0,*74
1529467655.67,27740,18.75,74736.0,6.43,0.67,-2.67,0,*65
1529467656.95,27741,18.75,74738.5,6.43,1.29,-2.07,0,*59
1529467658.18,27742,18.75,74736.0,6.43,1.93,-1.33,0,*5F
1529467659.43,27743,18.75,74736.3,6.43,2.13,-0.93,0,*6E
1529467660.63,27744,18.75,74740.5,6.41,2.55,-0.73,0,*67
1529467661.86,27745,18.75,74742.3,6.43,2.69,-0.81,0,*66
1529467663.07,27746,18.75,74740.5,6.43,2.95,-1.21,0,*5D
1529467664.28,27747,18.75,74744.0,6.45,2.95,-1.91,0,*51
1529467665.45,27748,18.75,74742.3,6.45,2.95,-2.91,0,*5D
1529467666.66,27749,18.75,74740.0,6.45,2.69,-4.61,0,*56
1529467667.87,27750,18.75,74738.8,6.45,2.47,-6.51,0,*53
1529467669.08,27751,18.75,74738.0,6.45,1.97,-7.87,0,*56
1529467670.31,27752,18.75,74742.8,6.45,1.17,-10.19,0,*6C
1529467671.55,27753,18.75,74738.8,6.43,-0.41,-12.75,0,*7C
1529467672.77,27754,18.75,74738.0,6.41,-0.85,-12.29,0,*78
1529467674.04,27755,18.75,74736.8,6.43,-1.83,-12.15,0,*43
1529467675.26,27756,18.75,74738.0,6.41,-2.19,-11.37,0,*41
1529467676.45,27757,18.75,74738.3,6.41,-2.83,-11.19,0,*4F
1529467677.67,27758,18.75,74736.5,6.41,-3.43,-10.93,0,*4E
1529467678.86,27759,18.75,74738.3,6.41,-2.99,-9.79,0,*75
1529467680.07,27760,18.75,74740.8,6.39,-2.91,-9.97,0,*78
1529467681.35,27761,18.75,74740.0,6.39,-2.47,-10.79,0,*4A
1529467682.63,27762,18.75,74740.5,6.39,-2.11,-10.67,0,*45
1529467683.88,27763,18.75,74740.0,6.39,-1.99,-9.71,0,*78
1529467685.13,27764,18.75,74736.0,6.39,-2.03,-9.27,0,*7C
1529467686.33,27765,18.75,74736.0,6.39,-1.59,-8.59,0,*79
1529467687.57,27766,18.75,74740.8,6.39,-1.29,-7.99,0,*7E
1529467688.81,27767,18.75,74738.5,6.39,-0.73,-6.97,0,*4E
1529467690.05,27768,18.75,74738.0,6.39,-0.65,-6.27,0,*4D
1529467691.26,27769,18.75,74738.3,6.39,-0.15,-5.47,0,*4E
1529467692.47,27770,18.75,74744.5,6.41,-0.29,-5.27,0,*40
1529467693.66,27771,18.75,74740.8,6.41,-0.57,-4.49,0,*41
1529467694.86,27772,18.75,74740.8,6.39,-0.77,-3.23,0,*44
1529467696.13,27773,18.75,74744.3,6.39,-1.13,-2.11,0,*76
1529467697.36,27774,18.75,74742.8,6.39,-0.61,-1.39,0,*4C
1529467698.62,27775,18.81,74740.8,6.39,0.21,-1.01,0,*6F
1529467699.84,27776,18.75,74736.0,6.39,0.59,-1.25,0,*65
1529467701.07,27777,18.75,74738.0,6.39,0.97,-1.39,0,*6B
1529467702.31,27778,18.75,74740.3,6.39,1.43,-1.71,0,*50
1529467703.55,27779,18.75,74740.3,6.39,1.71,-2.35,0,*53
1529467704.78,27780,18.75,74740.3,6.41,1.63,-3.71,0,*58
1529467705.98,27781,18.75,74746.8,6.41,1.59,-4.99,0,*51
1529467707.22,27782,18.75,74744.8,6.43,1.25,-6.59,0,*55
1529467708.45,27783,18.75,74742.8,6.43,0.87,-8.21,0,*6C
1529467709.67,27784,18.75,74742.0,6.43,-0.19,-9.71,0,*45
1529467710.85,27785,18.75,74738.8,6.41,-1.59,-9.67,0,*74
1529467712.07,27786,18.75,74734.3,6.43,-2.31,-8.17,0,*7E
1529467713.28,27787,18.75,74728.0,6.39,-2.15,-6.77,0,*7C
1529467714.52,27788,18.75,74728.3,6.39,-1.59,-5.19,0,*73
1529467715.76,27789,18.75,74734.0,6.39,-0.89,-4.49,0,*4A
1529467717.0,27790,18.75,74736.3,6.39,-0.73,-4.69,0,*45
1529467718.2,27791,18.75,74738.3,6.37,-0.07,-4.81,0,*7F
1529467719.44,27792,18.75,74742.0,6.39,-0.27,-6.47,0,*48
1529467720.66,27793,18.75,74740.0,6.39,-0.77,-8.89,0,*40
1529467721.84,27794,18.75,74736.3,6.37,-2.43,-10.85,0,*49